Alabaster, AL

1:35 AM CDT on June 28, 2017 (GMT -0500)
Shelby County

Weather History for KEET - August, 2013

Change the Weather History Date:

Thursday, August 29, 2013

  Actual Average Record
Temperature  
Mean Temperature 80 °F 79 °F  
Max Temperature 90 °F 89 °F 98 °F (1959)
Min Temperature 69 °F 69 °F 53 °F (1968)
Cooling Degree Days 15 14  
Month to date cooling degree days 392 442  
Year to date cooling degree days 1471 1572  
Since 1 June cooling degree days 1219 1303  
Growing Degree Days 30 (Base 50)    
Moisture  
Dew Point 70 °F    
Average Humidity 76    
Maximum Humidity 100    
Minimum Humidity 52    
Precipitation  
Precipitation 0.00 in 0.15 in 1.12 in (2007)
Month to date precipitation 6.39 4.46  
Year to date precipitation 46.97 37.78  
Sea Level Pressure  
Sea Level Pressure 30.02 in    
Wind  
Wind Speed 2 mph (NW)    
Max Wind Speed 10 mph    
Max Gust Speed 13 mph    
Visibility 7 miles    
Events      
T = Trace of Precipitation, MM = Missing Value Source: NWS Daily Summary

Daily Weather History Graph

Daily Weather History Graph

Search for Another Location

Airport or City:

Trip Planner

Search our weather history database for the weather conditions in past years. The results will help you decide how hot, cold, wet, or windy it might be!

Date:

Astronomy

Aug. 29, 2013 Rise Set
Actual Time 6:19 AM CDT 7:15 PM CDT
Civil Twilight 5:54 AM CDT 7:41 PM CDT
Nautical Twilight 5:24 AM CDT 8:11 PM CDT
Astronomical Twilight 4:53 AM CDT 8:41 PM CDT
Moon 12:19 AM CDT (8/29) 2:34 PM CDT (8/29)
Length of Visible Light 13h 46m
Length of Day
12h 56m
Last Quarter, 38% of the Moon is Illuminated
Aug 29
Last Quarter
Sep 5
New
Sep 12
First Quarter
Sep 19
Full
Sep 26
Last Quarter

Hourly Weather History & Observations

Time (CDT) Temp. Heat Index Dew Point Humidity Pressure Visibility Wind Dir Wind Speed Gust Speed Precip Events Conditions
12:53 AM 72.0 °F - 70.0 °F 93% 30.04 in 5.0 mi Calm Calm - N/A   Clear
1:53 AM 71.1 °F - 70.0 °F 96% 30.03 in 4.0 mi Calm Calm - N/A   Clear
2:53 AM 71.1 °F - 69.1 °F 93% 30.02 in 4.0 mi Calm Calm - N/A   Clear
3:53 AM 70.0 °F - 69.1 °F 97% 30.01 in 4.0 mi Calm Calm - N/A   Clear
4:53 AM 71.1 °F - 69.1 °F 93% 30.02 in 6.0 mi Calm Calm - N/A   Clear
5:53 AM 70.0 °F - 68.0 °F 93% 30.04 in 5.0 mi Calm Calm - N/A   Clear
6:53 AM 70.0 °F - 68.0 °F 93% 30.06 in 5.0 mi Calm Calm - N/A   Clear
7:53 AM 73.9 °F - 69.1 °F 85% 30.06 in 6.0 mi WNW 4.6 mph - N/A   Haze
8:53 AM 78.1 °F - 70.0 °F 76% 30.07 in 7.0 mi WNW 5.8 mph - N/A   Clear
9:53 AM 82.0 °F 86.3 °F 71.1 °F 69% 30.07 in 8.0 mi Calm Calm - N/A   Clear
10:53 AM 84.9 °F 90.1 °F 71.1 °F 63% 30.06 in 8.0 mi NW 6.9 mph - N/A   Clear
11:53 AM 88.0 °F 92.1 °F 69.1 °F 53% 30.04 in 10.0 mi North 6.9 mph - N/A   Clear
12:53 PM 88.0 °F 92.9 °F 70.0 °F 55% 30.03 in 10.0 mi Variable 3.5 mph - N/A   Clear
1:53 PM 88.0 °F 91.4 °F 68.0 °F 51% 30.01 in 10.0 mi WNW 5.8 mph - N/A   Scattered Clouds
2:53 PM 89.1 °F 93.7 °F 69.1 °F 52% 29.99 in 10.0 mi NW 6.9 mph - N/A   Mostly Cloudy
3:53 PM 89.1 °F 93.7 °F 69.1 °F 52% 29.98 in 10.0 mi Variable 5.8 mph - N/A   Mostly Cloudy
4:53 PM 88.0 °F 92.9 °F 70.0 °F 55% 29.98 in 9.0 mi WNW 3.5 mph - N/A   Scattered Clouds
5:53 PM 88.0 °F 92.9 °F 70.0 °F 55% 29.97 in 9.0 mi WNW 5.8 mph - N/A   Mostly Cloudy
6:53 PM 84.0 °F 89.6 °F 72.0 °F 67% 29.97 in 9.0 mi Calm Calm - N/A   Clear
7:53 PM 81.0 °F 85.2 °F 72.0 °F 74% 29.98 in 9.0 mi Calm Calm - N/A   Clear
8:53 PM 79.0 °F - 73.0 °F 82% 29.98 in 9.0 mi Calm Calm - N/A   Clear
9:53 PM 75.9 °F - 72.0 °F 87% 29.99 in 7.0 mi Calm Calm - N/A   Clear
10:53 PM 75.9 °F - 72.0 °F 87% 29.99 in 7.0 mi Calm Calm - N/A   Clear
11:53 PM 75.0 °F - 72.0 °F 90% 29.98 in 7.0 mi Calm Calm - N/A   Clear